FW7322 Weather Reports


Display with metric or nautical units.
time (UTC)temp
F
wind
direction
speed
MPH
gust
MPH
rain 1hr
in
rain 24hr
in
rain mn
in
humidity
%
barometer
mb
20260509224016 59 93 0.0 4.0 0.00 0.39 0.35 84 1032.5
20260509223519 59 106 0.0 5.0 0.00 0.39 0.35 84 1032.3
20260509223017 59 84 1.0 5.0 0.00 0.39 0.35 83 1032.5
20260509222515 60 81 0.0 5.0 0.00 0.39 0.35 83 1032.5
20260509222015 60 68 1.0 4.0 0.00 0.39 0.35 83 1032.5
20260509221515 59 96 0.0 4.0 0.00 0.39 0.35 84 1032.4
20260509221014 59 99 0.0 4.0 0.00 0.39 0.35 85 1032.6
20260509220513 59 77 2.0 4.0 0.00 0.39 0.35 83 1032.6
20260509220014 60 124 0.0 2.0 0.00 0.39 0.35 86 1032.7
20260509215513 59 115 0.0 4.0 0.00 0.39 0.35 86 1032.8
20260509215010 58 91 0.0 4.0 0.00 0.39 0.35 85 1032.8
20260509214510 58 94 0.0 3.0 0.00 0.39 0.35 86 1032.8
20260509214014 58 105 0.0 4.0 0.00 0.39 0.35 86 1032.7
20260509213510 58 82 0.0 4.0 0.00 0.39 0.35 86 1032.8
20260509213009 58 79 1.0 3.0 0.00 0.39 0.35 86 1032.7
20260509212507 58 85 0.0 3.0 0.00 0.39 0.35 88 1032.8
20260509212006 57 86 1.0 3.0 0.00 0.39 0.35 89 1032.8
20260509211504 56 115 0.0 2.0 0.00 0.39 0.35 89 1033.0
20260509211003 56 82 0.0 2.0 0.00 0.39 0.35 89 1033.0
20260509210503 56 142 0.0 3.0 0.00 0.39 0.35 89 1033.0
20260509210002 56 83 0.0 3.0 0.01 0.39 0.35 89 1033.2
20260509205501 56 82 1.0 3.0 0.01 0.39 0.35 89 1033.2
20260509205100 56 91 0.0 4.0 0.01 0.39 0.35 90 1033.3
20260509204604 56 86 1.0 4.0 0.01 0.39 0.35 90 1033.3
20260509204101 56 96 0.0 4.0 0.01 0.39 0.35 90 1033.4
20260509203600 56 97 0.0 3.0 0.01 0.39 0.35 90 1033.3
20260509203100 56 72 0.0 3.0 0.01 0.39 0.35 91 1033.3
20260509202558 56 93 0.0 3.0 0.01 0.39 0.35 91 1033.3
20260509202058 55 101 0.0 3.0 0.01 0.39 0.35 91 1033.4
20260509201557 55 91 0.0 2.0 0.01 0.39 0.35 91 1033.5
20260509201056 55 79 0.0 1.0 0.01 0.39 0.35 91 1033.7
20260509200557 55 97 0.0 3.0 0.02 0.39 0.35 91 1033.6
20260509200108 55 94 1.0 4.0 0.01 0.38 0.34 91 1033.6
20260509195556 55 86 0.0 4.0 0.02 0.41 0.34 91 1033.7
20260509195055 55 80 1.0 3.0 0.02 0.41 0.34 91 1033.6
20260509194556 55 74 1.0 4.0 0.02 0.41 0.34 91 1033.7
20260509194056 55 103 0.0 4.0 0.02 0.41 0.34 92 1033.8
20260509193555 55 91 0.0 4.0 0.02 0.41 0.34 93 1033.8
20260509193055 54 73 1.0 4.0 0.03 0.41 0.34 93 1033.6
20260509192555 54 96 0.0 0.0 0.04 0.41 0.34 93 1033.7
20260509192052 54 258 0.0 1.0 0.05 0.41 0.34 93 1033.7
20260509191552 53 259 0.0 3.0 0.06 0.41 0.34 92 1033.6
20260509191053 53 270 0.0 3.0 0.08 0.41 0.34 92 1033.7
20260509190551 53 99 0.0 2.0 0.08 0.40 0.33 92 1033.8
20260509190057 53 85 0.0 4.0 0.09 0.40 0.33 92 1033.9
20260509185550 53 329 0.0 4.0 0.09 0.39 0.32 92 1034.0
20260509184631 53 90 0.0 3.0 0.10 0.39 0.32 92 1034.1
20260509184052 53 92 0.0 3.0 0.11 0.39 0.32 92 1034.2
20260509183548 53 94 0.0 4.0 0.11 0.38 0.31 92 1034.1
20260509183050 53 95 0.0 4.0 0.11 0.38 0.31 92 1034.2
20260509182547 53 99 0.0 7.0 0.11 0.37 0.30 92 1034.3
20260509182047 53 60 1.0 7.0 0.11 0.36 0.28 92 1034.4
20260509181549 53 95 0.0 5.0 0.10 0.35 0.28 92 1034.3
20260509181046 53 88 1.0 5.0 0.08 0.33 0.26 92 1034.4
20260509180547 53 84 0.0 3.0 0.08 0.32 0.25 92 1034.4
20260509180046 53 243 1.0 5.0 0.07 0.31 0.24 92 1034.3
20260509175546 53 114 0.0 6.0 0.07 0.30 0.23 92 1034.2
20260509175046 53 76 2.0 6.0 0.06 0.28 0.22 91 1034.3
20260509174548 53 101 1.0 6.0 0.07 0.28 0.22 92 1034.2
20260509174046 53 86 0.0 6.0 0.06 0.28 0.21 92 1034.2
20260509173545 53 262 0.0 6.0 0.05 0.27 0.20 92 1034.2
20260509173047 53 86 0.0 5.0 0.05 0.26 0.19 91 1034.3
20260509172545 53 86 0.0 5.0 0.06 0.26 0.19 92 1034.2
20260509172046 53 77 1.0 5.0 0.06 0.25 0.18 92 1034.4
20260509171545 53 73 0.0 4.0 0.06 0.25 0.18 92 1034.3
20260509171047 53 103 0.0 4.0 0.07 0.25 0.18 92 1034.3
20260509170548 53 219 0.0 5.0 0.07 0.24 0.17 92 1034.2
20260509170043 53 115 1.0 6.0 0.08 0.24 0.17 91 1034.2
20260509165543 53 217 1.0 6.0 0.07 0.23 0.16 91 1034.2
20260509165043 53 87 0.0 6.0 0.08 0.23 0.16 91 1034.2
20260509164543 53 103 0.0 3.0 0.07 0.22 0.15 92 1034.3
20260509164045 53 264 1.0 4.0 0.07 0.22 0.15 91 1034.3
20260509163542 53 114 0.0 4.0 0.08 0.22 0.15 91 1034.3
20260509163101 53 99 0.0 4.0 0.07 0.21 0.14 91 1034.3
20260509162546 53 104 0.0 5.0 0.06 0.20 0.13 91 1034.5
20260509162043 53 108 0.0 5.0 0.05 0.19 0.12 91 1034.4
20260509161542 53 81 0.0 7.0 0.05 0.19 0.12 91 1034.5
20260509161045 53 98 3.0 7.0 0.05 0.18 0.11 91 1034.6
20260509160541 53 94 1.0 5.0 0.04 0.17 0.10 91 1034.5
20260509160041 53 73 1.0 5.0 0.03 0.16 0.09 91 1034.6
20260509155543 53 95 0.0 5.0 0.04 0.16 0.09 91 1034.6
20260509155040 54 82 0.0 4.0 0.03 0.15 0.08 91 1034.6
20260509154545 54 81 1.0 4.0 0.03 0.15 0.08 91 1034.7
20260509154042 54 235 0.0 2.0 0.04 0.15 0.08 92 1034.6
20260509153540 54 96 0.0 1.0 0.03 0.14 0.07 92 1034.7
20260509153040 54 96 0.0 3.0 0.03 0.14 0.07 92 1034.6
20260509152539 53 96 0.0 3.0 0.03 0.14 0.07 92 1034.6
20260509152039 54 259 0.0 2.0 0.03 0.14 0.07 93 1034.5
20260509151538 53 259 0.0 2.0 0.03 0.14 0.07 92 1034.6
20260509151041 53 98 0.0 0.0 0.02 0.13 0.06 93 1034.7
20260509150536 53 94 0.0 0.0 0.02 0.13 0.06 93 1034.7
20260509150036 53 94 0.0 0.0 0.02 0.13 0.06 93 1034.6
20260509145536 53 94 0.0 0.0 0.01 0.12 0.05 93 1034.7
20260509145037 53 94 0.0 0.0 0.02 0.12 0.05 94 1034.8
20260509144538 53 94 0.0 0.0 0.02 0.12 0.05 93 1034.7
20260509144037 52 94 0.0 0.0 0.01 0.11 0.04 93 1034.9
20260509143534 52 94 0.0 0.0 0.01 0.11 0.04 94 1034.9
20260509143044 52 94 0.0 0.0 0.01 0.11 0.04 93 1034.9
20260509142533 52 95 0.0 0.0 0.01 0.11 0.04 93 1034.7
20260509142036 52 95 0.0 0.0 0.02 0.11 0.04 93 1034.6
20260509141540 52 95 0.0 0.0 0.02 0.11 0.04 93 1034.7
20260509141032 52 95 0.0 0.0 0.02 0.11 0.04 94 1034.6
20260509140531 52 95 0.0 0.0 0.02 0.11 0.04 93 1034.6
20260509140031 52 95 0.0 0.0 0.02 0.11 0.04 94 1034.5
20260509135531 52 95 0.0 0.0 0.02 0.12 0.04 94 1034.7
20260509135033 51 95 0.0 0.0 0.02 0.11 0.03 94 1034.8
20260509134528 51 95 0.0 0.0 0.02 0.11 0.03 94 1034.8
20260509134028 51 95 0.0 0.0 0.02 0.11 0.03 94 1034.9
20260509133529 51 95 0.0 0.0 0.02 0.11 0.03 94 1034.8
20260509133026 51 95 0.0 0.0 0.02 0.11 0.03 94 1034.9
20260509132526 51 95 0.0 0.0 0.02 0.11 0.03 94 1034.9
20260509132029 51 95 0.0 0.0 0.01 0.10 0.02 94 1035.0
20260509131525 51 95 0.0 0.0 0.01 0.10 0.02 94 1034.9
20260509131027 51 95 0.0 0.0 0.01 0.10 0.02 94 1035.0
20260509130524 51 95 0.0 0.0 0.01 0.10 0.02 94 1034.9
20260509130024 51 95 0.0 0.0 0.01 0.10 0.02 94 1034.9
20260509125523 51 96 0.0 0.0 0.01 0.10 0.02 94 1035.1
20260509125023 51 96 0.0 0.0 0.00 0.09 0.01 94 1034.9
20260509124528 51 96 0.0 0.0 0.00 0.09 0.01 95 1034.7
20260509124022 51 96 0.0 0.0 0.00 0.09 0.01 95 1034.8
20260509123522 50 96 0.0 0.0 0.00 0.09 0.01 95 1034.6
20260509123027 50 96 0.0 0.0 0.00 0.09 0.01 95 1034.5
20260509122520 50 97 0.0 0.0 0.00 0.09 0.01 95 1034.4
20260509122019 50 97 0.0 0.0 0.00 0.09 0.01 95 1034.6
20260509121520 50 97 0.0 1.0 0.00 0.09 0.01 95 1034.5
20260509121018 50 97 0.0 1.0 0.00 0.09 0.01 95 1034.7
20260509120519 50 97 0.0 1.0 0.00 0.09 0.01 95 1034.5
20260509120018 50 96 0.0 0.0 0.00 0.09 0.01 95 1034.4
20260509115517 50 96 0.0 0.0 0.00 0.09 0.01 95 1034.5
20260509115022 50 139 0.0 0.0 0.00 0.09 0.01 95 1034.4
20260509114517 49 142 0.0 0.0 0.00 0.09 0.01 95 1034.4
20260509114015 49 142 0.0 0.0 0.00 0.09 0.01 95 1034.4
20260509113515 49 142 0.0 0.0 0.00 0.09 0.01 95 1034.4
20260509113015 49 253 0.0 0.0 0.01 0.09 0.01 95 1034.4
20260509112514 49 254 0.0 1.0 0.01 0.09 0.01 95 1034.4
20260509112013 49 255 0.0 1.0 0.01 0.09 0.01 95 1034.6
20260509111517 49 96 0.0 0.0 0.01 0.09 0.01 95 1034.7
20260509111014 49 96 0.0 0.0 0.01 0.09 0.01 95 1034.7
20260509110511 49 96 0.0 0.0 0.01 0.09 0.01 95 1034.7
20260509110014 49 96 0.0 0.0 0.01 0.09 0.01 95 1034.6
20260509105512 48 96 0.0 0.0 0.01 0.09 0.01 95 1034.7
20260509105011 48 96 0.0 0.0 0.01 0.09 0.01 95 1034.6
20260509104524 48 96 0.0 0.0 0.01 0.09 0.01 95 1034.6
20260509104011 48 96 0.0 0.0 0.01 0.09 0.01 95 1034.8
20260509103510 48 96 0.0 0.0 0.01 0.09 0.01 95 1034.6
20260509103010 48 96 0.0 0.0 0.00 0.08 0.00 95 1034.8
20260509102513 48 96 0.0 0.0 0.00 0.08 0.00 95 1034.7
20260509102010 48 96 0.0 0.0 0.00 0.08 0.00 95 1034.7
20260509101510 48 96 0.0 0.0 0.00 0.08 0.00 95 1034.7
20260509101008 48 96 0.0 0.0 0.00 0.08 0.00 95 1034.8
20260509100508 48 96 0.0 0.0 0.00 0.08 0.00 95 1034.8
20260509100014 48 96 0.0 0.0 0.00 0.08 0.00 95 1034.9
20260509095509 48 101 0.0 0.0 0.00 0.08 0.00 95 1035.0
20260509095009 48 101 0.0 0.0 0.00 0.08 0.00 95 1035.1
20260509094509 48 101 0.0 0.0 0.00 0.08 0.00 95 1034.9
20260509094008 48 143 0.0 0.0 0.00 0.08 0.00 95 1034.9
20260509093510 48 143 0.0 0.0 0.00 0.08 0.00 95 1034.9
20260509093008 48 143 0.0 0.0 0.00 0.08 0.00 94 1035.0
20260509092508 48 151 0.0 0.0 0.00 0.08 0.00 94 1034.8
20260509092007 48 150 0.0 0.0 0.00 0.08 0.00 94 1034.9
20260509091507 48 150 0.0 0.0 0.00 0.08 0.00 94 1034.9
20260509091006 48 150 0.0 0.0 0.00 0.08 0.00 94 1034.9
20260509090507 48 151 0.0 0.0 0.00 0.08 0.00 94 1034.9
20260509090006 48 151 0.0 0.0 0.00 0.08 0.00 94 1034.9
20260509085505 48 150 0.0 0.0 0.00 0.08 0.00 94 1034.9
20260509085004 48 151 0.0 0.0 0.00 0.08 0.00 94 1035.0
20260509084506 48 155 0.0 0.0 0.00 0.08 0.00 94 1035.0
20260509084005 48 155 0.0 0.0 0.00 0.08 0.00 94 1035.0
20260509083503 48 100 0.0 0.0 0.00 0.08 0.00 94 1035.0
20260509083003 48 100 0.0 0.0 0.00 0.08 0.00 94 1035.0
20260509082503 48 99 0.0 0.0 0.00 0.08 0.00 94 1035.1
20260509082002 48 91 0.0 0.0 0.00 0.08 0.00 94 1035.3
20260509081501 48 91 0.0 0.0 0.00 0.08 0.00 94 1035.4
20260509081101 48 91 0.0 0.0 0.00 0.08 0.00 94 1035.4
20260509080559 48 91 0.0 0.0 0.00 0.08 0.00 94 1035.6
20260509075559 49 91 0.0 0.0 0.00 0.08 0.00 94 1035.8
20260509075059 49 91 0.0 0.0 0.00 0.08 0.00 94 1035.7
20260509074658 49 91 0.0 0.0 0.00 0.08 0.00 94 1035.8
20260509074058 49 91 0.0 0.0 0.00 0.08 0.00 94 1035.7
20260509073601 49 91 0.0 0.0 0.00 0.08 0.00 94 1035.7
20260509073106 49 91 0.0 0.0 0.00 0.08 0.00 94 1035.7
20260509072559 49 91 0.0 0.0 0.00 0.08 0.00 94 1035.8
20260509072059 49 91 0.0 0.0 0.00 0.08 0.00 94 1035.6
20260509071556 49 91 0.0 0.0 0.00 0.08 0.00 94 1035.6
20260509071056 49 91 0.0 0.0 0.00 0.08 0.00 94 1035.5
20260509070555 49 91 0.0 0.0 0.00 0.08 0.00 94 1035.6
20260509070057 49 91 0.0 0.0 0.00 0.08 0.00 94 1035.8
20260509065554 49 91 0.0 0.0 0.00 0.08 0.00 94 1035.7
20260509065053 49 91 0.0 0.0 0.00 0.08 0.00 94 1035.9
20260509064553 49 91 0.0 0.0 0.00 0.08 0.00 94 1035.9
20260509064053 49 91 0.0 0.0 0.00 0.08 0.00 94 1036.0
20260509063552 49 91 0.0 0.0 0.00 0.08 0.00 94 1036.1
20260509063059 49 91 0.0 0.0 0.00 0.08 0.00 94 1035.9
20260509062552 49 91 0.0 0.0 0.00 0.08 0.00 94 1035.9
20260509062052 49 91 0.0 0.0 0.00 0.08 0.00 94 1036.0
20260509061606 49 91 0.0 0.0 0.00 0.08 0.00 94 1036.0
20260509061051 49 91 0.0 0.0 0.00 0.08 0.00 94 1036.1
20260509060553 49 87 0.0 0.0 0.00 0.08 0.00 94 1036.3
20260509060051 49 87 0.0 0.0 0.00 0.08 0.00 94 1036.3
20260509055553 49 87 0.0 0.0 0.00 0.08 0.00 94 1036.5
20260509055051 49 87 0.0 0.0 0.00 0.08 0.00 94 1036.5
20260509054558 49 87 0.0 0.0 0.00 0.08 0.00 94 1036.6
20260509054051 49 87 0.0 0.0 0.00 0.08 0.00 94 1036.6
20260509053550 49 87 0.0 0.0 0.00 0.08 0.00 94 1036.8
20260509053059 49 87 0.0 0.0 0.00 0.08 0.00 94 1036.9
20260509052551 49 87 0.0 0.0 0.00 0.08 0.00 94 1037.1
20260509052055 49 87 0.0 0.0 0.00 0.08 0.00 94 1037.1
20260509051552 49 87 0.0 0.0 0.00 0.08 0.00 94 1037.1
20260509051049 49 87 0.0 0.0 0.00 0.08 0.00 94 1036.9
20260509050548 49 87 0.0 0.0 0.00 0.08 0.00 94 1037.0
20260509050050 49 87 0.0 0.0 0.00 0.08 0.00 94 1036.7
20260509045546 49 88 0.0 0.0 0.00 0.10 0.00 94 1036.4
20260509045045 49 88 0.0 0.0 0.00 0.10 0.00 94 1036.3
20260509044550 49 88 0.0 0.0 0.00 0.10 0.00 94 1036.2
20260509044045 49 88 0.0 0.0 0.00 0.10 0.00 94 1036.3
20260509043547 49 88 0.0 0.0 0.00 0.10 0.00 94 1036.4
20260509043044 49 88 0.0 0.0 0.00 0.10 0.00 94 1036.3
20260509042543 49 88 0.0 0.0 0.00 0.10 0.00 94 1036.4
20260509042046 49 88 0.0 0.0 0.00 0.10 0.00 94 1036.1
20260509041543 49 88 0.0 0.0 0.00 0.10 0.00 94 1035.9
20260509041043 49 88 0.0 0.0 0.00 0.10 0.00 94 1035.8
20260509040540 49 88 0.0 0.0 0.00 0.10 0.00 94 1035.9
20260509040042 49 88 0.0 0.0 0.00 0.10 0.00 94 1036.0
20260509035539 49 88 0.0 0.0 0.00 0.10 0.10 94 1036.2
20260509035038 49 88 0.0 0.0 0.00 0.10 0.10 94 1036.3
20260509034539 49 88 0.0 0.0 0.00 0.10 0.10 94 1036.4
20260509034038 49 88 0.0 0.0 0.01 0.10 0.10 94 1036.6
20260509033539 49 88 0.0 0.0 0.01 0.10 0.10 94 1036.5
20260509033039 49 88 0.0 0.0 0.01 0.10 0.10 93 1036.3
20260509032539 49 82 0.0 0.0 0.01 0.10 0.10 93 1036.4
20260509032042 49 82 0.0 0.0 0.01 0.10 0.10 93 1036.5
20260509031538 50 82 0.0 0.0 0.01 0.10 0.10 93 1036.3
20260509031038 50 82 0.0 0.0 0.01 0.10 0.10 93 1036.3
20260509030537 50 82 0.0 0.0 0.01 0.10 0.10 93 1036.4
20260509030038 50 82 0.0 0.0 0.01 0.10 0.10 93 1036.3
20260509025537 50 82 0.0 0.0 0.01 0.10 0.10 94 1036.7
20260509025037 49 82 0.0 0.0 0.01 0.10 0.10 94 1036.6
20260509024537 49 82 0.0 0.0 0.01 0.10 0.10 93 1036.6
20260509024037 49 82 0.0 0.0 0.00 0.09 0.09 93 1036.7
20260509023540 49 82 0.0 0.0 0.00 0.09 0.09 93 1036.9
20260509023039 49 82 0.0 0.0 0.00 0.09 0.09 93 1036.8
20260509022536 49 82 0.0 0.0 0.00 0.09 0.09 93 1036.7
20260509022036 49 82 0.0 0.0 0.00 0.09 0.09 93 1036.5
20260509021536 49 82 0.0 0.0 0.00 0.09 0.09 93 1036.4
20260509021035 49 82 0.0 0.0 0.00 0.09 0.09 93 1036.5
20260509020535 49 82 0.0 0.0 0.00 0.09 0.09 93 1036.4
20260509020038 49 82 0.0 0.0 0.00 0.09 0.09 93 1036.3
20260509015535 49 82 0.0 0.0 0.00 0.09 0.09 93 1036.3
20260509015042 49 82 0.0 0.0 0.00 0.09 0.09 93 1036.2
20260509014536 49 82 0.0 0.0 0.00 0.09 0.09 93 1036.2
20260509014036 49 82 0.0 0.0 0.00 0.09 0.09 92 1036.2
20260509013535 49 82 0.0 0.0 0.00 0.09 0.09 92 1036.2
20260509013035 49 82 0.0 0.0 0.00 0.09 0.09 92 1036.0
20260509012537 49 82 0.0 0.0 0.00 0.09 0.09 92 1036.1
20260509012035 49 82 0.0 0.0 0.00 0.09 0.09 92 1036.2
20260509011535 49 82 0.0 0.0 0.00 0.09 0.09 92 1036.0
20260509011034 50 82 0.0 0.0 0.00 0.09 0.09 91 1036.0
20260509010533 50 82 0.0 0.0 0.00 0.09 0.09 91 1036.0
20260509010033 50 82 0.0 0.0 0.00 0.09 0.09 91 1036.0
20260509005534 51 82 0.0 0.0 0.00 0.09 0.09 91 1035.9
20260509005033 51 82 0.0 0.0 0.00 0.09 0.09 91 1035.9
20260509004538 51 82 0.0 0.0 0.00 0.09 0.09 91 1035.8
20260509004036 51 82 0.0 0.0 0.00 0.09 0.09 91 1035.7
20260509003533 51 82 0.0 0.0 0.00 0.09 0.09 91 1035.7
20260509003038 51 82 0.0 0.0 0.00 0.09 0.09 91 1035.7
20260509002537 51 82 0.0 0.0 0.00 0.09 0.09 91 1035.6
20260509002032 51 82 0.0 0.0 0.00 0.09 0.09 90 1035.6
20260509001533 52 82 0.0 0.0 0.00 0.09 0.09 90 1035.6
20260509001033 52 82 0.0 0.0 0.00 0.09 0.09 90 1035.7
20260509000531 52 82 0.0 0.0 0.00 0.09 0.09 90 1035.7
20260509000031 52 82 0.0 0.0 0.01 0.09 0.09 90 1035.7
20260508235531 52 82 0.0 0.0 0.01 0.09 0.09 89 1035.5
20260508235032 52 82 0.0 0.0 0.01 0.09 0.09 89 1035.3
20260508234532 52 82 0.0 0.0 0.01 0.09 0.09 89 1035.2
20260508234030 52 82 0.0 0.0 0.01 0.09 0.09 88 1035.1
20260508233534 53 82 0.0 0.0 0.01 0.09 0.09 88 1035.1
20260508233029 53 82 0.0 0.0 0.01 0.09 0.09 88 1035.1
20260508232528 53 82 0.0 0.0 0.02 0.09 0.09 89 1035.1
20260508232027 52 82 0.0 0.0 0.02 0.09 0.09 89 1035.3
20260508231527 52 82 0.0 0.0 0.02 0.09 0.09 88 1035.4
20260508231029 52 82 0.0 0.0 0.02 0.09 0.09 88 1035.4
20260508230526 52 82 0.0 0.0 0.03 0.09 0.09 88 1035.5
20260508230026 53 82 0.0 0.0 0.02 0.08 0.08 87 1035.5
20260508225530 53 82 0.0 0.0 0.02 0.08 0.08 87 1035.5
20260508225026 53 82 0.0 0.0 0.02 0.08 0.08 86 1035.3
20260508224529 53 82 0.0 0.0 0.02 0.08 0.08 85 1035.3